User: anonymous   Login
Location: Caltech
(34.1382°N, 118.1253°W)
Time: 23:41:13
(UTC-07:00)
Language:

Oscar 11 - Orbit

View from above orbital plane
View from above orbital plane
View from above satellite
View from above satellite

Ground track
Ground track

The orbit data is extracted from the following two-line orbital elements,

1 14781U 84021B   18169.55223165 +.00000070 +00000-0 +14774-4 0  9994
2 14781 097.6489 205.7106 0010035 080.7819 279.4530 14.83011408823642
Epoch (UTC): 18 June 2018 13:15:12
Eccentricity: 0.0010035
inclination: 97.6489°
perigee height: 613 km
apogee height: 627 km
right ascension of ascending node: 205.7106°
argument of perigee: 80.7819°
revolutions per day: 14.83011408
mean anomaly at epoch: 279.4530°
orbit number at epoch: 82364

The dashed part of the orbit path shows where the satellite is in the earth's shadow,  

DLR